Regional Weather Roundup
Issued by NWS Midland/Odessa, TX

Home | Current Version | Previous Version | Text Only | Print | Product List | Glossary On
Versions: 1 2 3 4 5 6 7 8 9 10 11 12 13 14 15 16 17 18 19 20 21 22 23 24 25 26 27 28 29 30 31 32 33 34 35 36 37 38 39 40 41 42 43 44 45 46 47 48 49 50
300
ASUS44 KMAF 222301
RWRMAF
MIDLAND AREA WEATHER ROUNDUP
NATIONAL WEATHER SERVICE MIDLAND TX
600 PM CDT THU JUN 22 2017

...IN SOUTHWEST TEXAS AND SOUTHEAST NEW MEXICO...

CITY           SKY/WX    TMP DP  RH WIND       PRES   REMARKS
ALPINE         MOSUNNY  100  44  14 N6        29.91F
ANDREWS        FAIR     101  51  18 SE9       29.75F
ARTESIA        SUNNY    104  46  14 SE8G17    29.71S HX 100
BIG SPRING     SUNNY    100  50  18 CALM      29.73F
CARLSBAD       CLOUDY   104  47  14 SE9       29.69F HX 100
DRYDEN           N/A    102  56  21 SE6       29.69F HX 101
FORT STOCKTON  SUNNY    104  49  15 E8        29.72F HX 101
GUAD PASS      NOT AVBL
HOBBS          SUNNY    100  45  15 S7        29.76F
MARFA          CLOUDY    93  47  20 SE12      29.90F
MIDLAND AIRPK  SUNNY    102  47  15 SE5       29.73F
MIDLAND INTL   SUNNY    101  49  17 VRB3      29.72F
ODESSA         SUNNY    102  48  16 S9        29.74F
PECOS          SUNNY    107  48  14 NE7       29.68F HX 103
PRESIDIO       FAIR     110  43  10 N20G29    29.71R HX 105
SEMINOLE       SUNNY     99  48  17 SE5       29.76F
SNYDER         SUNNY     98  57  25 S3        29.72F
WINK           SUNNY    107  46  13 SE9       29.68F HX 103
$$
...OTHER STATIONS IN TEXAS...

CITY           SKY/WX    TMP DP  RH WIND       PRES   REMARKS
ABILENE        SUNNY     95  58  28 W7        29.69F
AMARILLO       SUNNY     98  53  22 S8        29.73F
AUSTIN         MOSUNNY   99  68  36 S3        29.64F HX 104
BROWNSVILLE    SUNNY     93  75  55 SE24      29.67F HX 104
CORPUS CHRISTI MOSUNNY   93  79  63 SE18G25   29.64F HX 110
DALLAS FTW     PTSUNNY   90  73  57 E3        29.63F
DEL RIO        SUNNY    102  55  20 SE7       29.63F HX 100
EL PASO        MOSUNNY  108  30   6 VRB7      29.75F HX 100
HOUSTON INT    PTSUNNY   83  78  85 CALM      29.68R
LUBBOCK        MOSUNNY   99  53  21 S9        29.74F
SAN ANGELO     SUNNY    103  52  18 CALM      29.67F HX 100
SAN ANTONIO    PTSUNNY   99  55  23 S6        29.66F
WACO           PTSUNNY   92  72  51 VRB3      29.65F
WICHITA FALLS  NOT AVBL
$$
...OTHER LOCATIONS IN NEW MEXICO...

CITY           SKY/WX    TMP DP  RH WIND       PRES   REMARKS
ALAMOGORDO     SUNNY    106  32   8 N3G21     29.78F
ALBUQUERQUE    MOSUNNY  101  24   6 W18       29.88F
CANNON AFB     SUNNY    102  47  15 SE13      29.76F
CLOVIS         SUNNY     99  56  23 SE18G25   29.76F
HOLLOMAN AFB   SUNNY    105  27   6 NE3       29.78F
ROSWELL        SUNNY    107  43  11 S10       29.69F HX 102
RUIDOSO        SUNNY     93  34  12 NW12G23   30.05F
SANTA FE       SUNNY     94  31  10 CALM      29.98F
TRUTH OR CONSE PTSUNNY  102  29   7 W9        29.83F
TUCUMCARI      SUNNY    104  36   9 N7        29.70S
$$




USA.gov is the U.S. government's official web portal to all federal, state and local government web resources and services.